sat.trackr.live / text

‹ back to catalog

STARLINK-34315

NORAD 64266 · 2025-120L

PAYLOAD ACTIVE UNKNOWN

§ Identity

Operator
Country
US
Launch date
2025-06-04
Launch site
AFWTR
Launch vehicle
Mass (kg)
RCS (m²)

Purposes: comms

External: N2YO · Heavens-Above · Gunter

§ Orbital elements

Epoch: 2026-05-25T02:37:15.008736Z

Period
94.10 min
Inclination
53.1585°
Eccentricity
0.0001617
Mean motion
15.30210785 rev/d
Perigee alt
474.1 km
Apogee alt
476.3 km
Semi-major
6,853.3 km
B*
4.6593e-4
RAAN
121.9171°
Arg perigee
130.1407°
Mean anomaly
229.9736°
Rev number
5,555

§ Raw data

STARLINK-343151 64266U 25120L   26145.10920149  .00013470  00000+0  46593-3 0  99922 64266  53.1585 121.9171 0001617 130.1407 229.9736 15.30210785 55556

JSON: /api/v1/satellites/64266 · /tle

For live sub-satellite position, see the globe view (requires WebGL).

§ Visibility from observer

Set your observer location to see the next 7 days of passes ≥ 10°. The values pass through the URL so the page stays shareable.

No JS? Fill the form by hand. The geolocation button needs JavaScript.